Location: Zihuatanejo
(17.6330°N, 101.5500°W)
Time: 05:34:12
(UTC-05:00)

Tiangong 2 - Pass Details

Date: 24 March 2019
Orbit: 378 x 390 km, 42.8° (Epoch: 25 April)

Event Time Altitude Azimuth Distance (km) Brightness Sun altitude
Exits shadow 07:04:33 - 326° (NW) 2,098 4.5 -11.0°
Reaches altitude 10° 07:06:24 10° 337° (NNW) 1,395 3.7 -10.6°
Maximum altitude 07:09:10 28° 39° (NE) 754 3.0 -9.9°
Drops below altitude 10° 07:11:57 10° 100° (E) 1,400 5.3 -9.2°
Sets 07:14:12 0° 113° (ESE) 2,255 6.2 -8.7°
